Weather History for KMVY - December, 2013

Change the Weather History Date:

Thursday, December 12, 2013

  Actual Average Record
Temperature  
Mean Temperature 24 °F -  
Max Temperature 32 °F 42 °F 62 °F (1971)
Min Temperature 17 °F 28 °F 7 °F (1988)
Degree Days  
Heating Degree Days 40    
Moisture  
Dew Point 8 °F    
Average Humidity 49    
Maximum Humidity 65    
Minimum Humidity 35    
Precipitation  
Precipitation 0.00 in - - ()
Sea Level Pressure  
Sea Level Pressure 30.21 in    
Wind  
Wind Speed 10 mph (NW)    
Max Wind Speed 20 mph    
Max Gust Speed 25 mph    
Visibility 10 miles    
Events      
Averages and records for this station are not official NWS values.
T = Trace of Precipitation, MM = Missing Value Source: NWS Daily Summary

Daily Weather History Graph

Daily Weather History Graph

Search for Another Location

Airport or City:

Trip Planner

Search our weather history database for the weather conditions in past years. The results will help you decide how hot, cold, wet, or windy it might be!

Date:

Astronomy

Dec. 12, 2013 Rise Set
Actual Time 6:59 AM EST 4:13 PM EST
Civil Twilight 6:28 AM EST 4:44 PM EST
Nautical Twilight 5:53 AM EST 5:19 PM EST
Astronomical Twilight 5:19 AM EST 5:52 PM EST
Moon 1:20 PM EST (12/12) 2:16 AM EST (12/12)
Length of Visible Light 10h 16m
Length of Day
9h 13m
Waxing Gibbous, 80% of the Moon is Illuminated
Dec 12
Waxing Gibbous
Dec 17
Full
Dec 25
Last Quarter
Jan 1
New
Jan 7
First Quarter

Hourly Weather History & Observations

Time (EST) Temp. Windchill Dew Point Humidity Pressure Visibility Wind Dir Wind Speed Gust Speed Precip Events Conditions
12:53 AM 32.0 °F 22.5 °F 16.0 °F 52% 30.15 in 10.0 mi WNW 12.7 mph 23.0 mph N/A   Overcast
1:53 AM 30.0 °F 20.5 °F 16.0 °F 56% 30.17 in 10.0 mi NW 11.5 mph 19.6 mph N/A   Scattered Clouds
2:53 AM 28.0 °F 17.5 °F 15.1 °F 58% 30.18 in 10.0 mi NW 12.7 mph 19.6 mph N/A   Clear
3:53 AM 27.0 °F 18.0 °F 14.0 °F 58% 30.19 in 10.0 mi NW 9.2 mph - N/A   Clear
4:53 AM 26.1 °F 15.0 °F 12.9 °F 58% 30.19 in 10.0 mi NW 12.7 mph - N/A   Clear
5:53 AM 26.1 °F 16.8 °F 12.9 °F 58% 30.21 in 10.0 mi NW 9.2 mph 20.7 mph N/A   Clear
6:53 AM 24.1 °F 12.5 °F 14.0 °F 65% 30.23 in 10.0 mi NNW 12.7 mph - N/A   Clear
7:53 AM 25.0 °F 14.2 °F 9.0 °F 51% 30.25 in 10.0 mi NNW 11.5 mph - N/A   Clear
8:53 AM 25.0 °F 12.6 °F 10.9 °F 55% 30.27 in 10.0 mi NNW 15.0 mph - N/A   Clear
9:53 AM 26.1 °F 12.3 °F 10.0 °F 51% 30.27 in 10.0 mi NW 19.6 mph 25.3 mph N/A   Clear
10:53 AM 27.0 °F 14.7 °F 6.1 °F 41% 30.25 in 10.0 mi NNW 16.1 mph 24.2 mph N/A   Clear
11:53 AM 27.0 °F 16.7 °F 6.1 °F 41% 30.23 in 10.0 mi NNW 11.5 mph - N/A   Partly Cloudy
12:53 PM 27.0 °F 16.7 °F 3.0 °F 36% 30.22 in 10.0 mi NNW 11.5 mph - N/A   Clear
1:53 PM 27.0 °F 17.3 °F 3.0 °F 36% 30.20 in 10.0 mi NW 10.4 mph - N/A   Clear
2:53 PM 26.1 °F 20.5 °F 1.9 °F 35% 30.22 in 10.0 mi NW 4.6 mph - N/A   Clear
3:53 PM 24.1 °F - 1.9 °F 38% 30.22 in 10.0 mi Calm Calm - N/A   Scattered Clouds
4:53 PM 21.9 °F 17.2 °F 3.0 °F 44% 30.21 in 10.0 mi NW 3.5 mph - N/A   Mostly Cloudy
5:53 PM 21.0 °F 14.6 °F 3.0 °F 46% 30.21 in 10.0 mi NW 4.6 mph - N/A   Clear
6:53 PM 17.1 °F 11.7 °F 3.0 °F 54% 30.21 in 10.0 mi WNW 3.5 mph - N/A   Mostly Cloudy
7:53 PM 21.0 °F 12.4 °F 5.0 °F 50% 30.22 in 10.0 mi NW 6.9 mph - N/A   Overcast
8:53 PM 21.9 °F 14.5 °F 5.0 °F 48% 30.21 in 10.0 mi WNW 5.8 mph - N/A   Partly Cloudy
9:53 PM 21.9 °F 15.7 °F 6.1 °F 51% 30.17 in 10.0 mi WNW 4.6 mph - N/A   Mostly Cloudy
10:53 PM 24.1 °F 15.2 °F 7.0 °F 48% 30.15 in 10.0 mi West 8.1 mph - N/A   Partly Cloudy
11:53 PM 24.1 °F 19.7 °F 10.0 °F 55% 30.11 in 10.0 mi West 3.5 mph - N/A   Mostly Cloudy